Weather History for Kalamata, Greece

Change the Weather History Date:

Sunday, March 9, 2014

  Actual Average Record
Temperature  
Mean Temperature 54 °F -  
Max Temperature 62 °F 64 °F 75 °F (2002)
Min Temperature 44 °F 45 °F 32 °F (2011)
Degree Days  
Heating Degree Days 11    
Growing Degree Days 4 (Base 50)    
Moisture  
Dew Point 37 °F    
Average Humidity 55    
Maximum Humidity 76    
Minimum Humidity 37    
Precipitation  
Precipitation 0.00 in 0.09 in - ()
Sea Level Pressure  
Sea Level Pressure 30.02 in    
Wind  
Wind Speed 4 mph ()    
Max Wind Speed 14 mph    
Max Gust Speed 24 mph    
Visibility 6.2 miles    
Events      
Averages and records for this station are not official NWS values.
T = Trace of Precipitation, MM = Missing Value Source: Averaged Metar Reports

Daily Weather History Graph

Daily Weather History Graph

Search for Another Location

Airport:

Trip Planner

Search our weather history database for the weather conditions in past years. The results will help you decide how hot, cold, wet, or windy it might be!

Date:

Astronomy

Mar. 09, 2014 Rise Set
Actual Time 6:52 AM EET 6:33 PM EET
Civil Twilight 6:26 AM EET 6:59 PM EET
Nautical Twilight 5:56 AM EET 7:29 PM EET
Astronomical Twilight 5:25 AM EET 7:59 PM EET
Moon 12:16 PM EET (3/9) 1:56 AM EET (3/9)
Length of Visible Light 12h 33m
Length of Day
11h 41m
First Quarter, 58% of the Moon is Illuminated
Mar 9
First Quarter
Mar 16
Full
Mar 24
Last Quarter
Mar 30
New
Apr 7
First Quarter

Hourly Weather History & Observations

Time (EET) Temp. Windchill Dew Point Humidity Pressure Visibility Wind Dir Wind Speed Gust Speed Precip Events Conditions
12:20 AM 51.8 °F - 35.6 °F 54% 30.04 in - North 4.6 mph - N/A   Unknown
1:20 AM 50.0 °F - 37.4 °F 62% 30.04 in - Variable 3.5 mph - N/A   Unknown
1:50 AM 51.8 °F - 37.4 °F 58% 30.04 in 6.2 mi Calm Calm - N/A   Partly Cloudy
2:20 AM 50.0 °F - 37.4 °F 62% 30.04 in - NE 4.6 mph - N/A   Unknown
2:50 AM 50.0 °F - 39.2 °F 66% 30.01 in - North 4.6 mph - N/A   Unknown
3:20 AM 48.2 °F - 39.2 °F 71% 30.01 in - North 5.8 mph - N/A   Unknown
3:50 AM 50.0 °F - 39.2 °F 66% 30.01 in - NNW 4.6 mph - N/A   Unknown
4:20 AM 48.2 °F - 39.2 °F 71% 30.01 in - Variable 3.5 mph - N/A   Unknown
4:50 AM 46.4 °F - 39.2 °F 76% 30.01 in - Variable 1.2 mph - N/A   Unknown
5:20 AM 48.2 °F - 39.2 °F 71% 30.01 in 6.2 mi Calm Calm - N/A   Partly Cloudy
5:50 AM 46.4 °F - 39.2 °F 76% 30.01 in 6.2 mi Calm Calm - N/A   Partly Cloudy
6:20 AM 48.2 °F - 39.2 °F 71% 30.01 in 6.2 mi Calm Calm - N/A   Partly Cloudy
6:50 AM 50.0 °F - 39.2 °F 66% 30.01 in 6.2 mi NNW 4.6 mph - N/A   Scattered Clouds
7:20 AM 46.4 °F - 39.2 °F 76% 30.01 in 6.2 mi Calm Calm - N/A   Scattered Clouds
7:50 AM 51.8 °F - 39.2 °F 62% 30.04 in 6.2 mi NNE 4.6 mph - N/A   Scattered Clouds
8:20 AM 53.6 °F - 39.2 °F 58% 30.04 in 6.2 mi NNE 8.1 mph - N/A   Scattered Clouds
8:50 AM 53.6 °F - 41.0 °F 62% 30.04 in 6.2 mi North 5.8 mph - N/A   Scattered Clouds
9:20 AM 55.4 °F - 39.2 °F 54% 30.04 in 6.2 mi NNE 5.8 mph - N/A   Scattered Clouds
9:50 AM 57.2 °F - 37.4 °F 48% 30.04 in 6.2 mi Calm Calm - N/A   Scattered Clouds
10:20 AM 59.0 °F - 37.4 °F 45% 30.04 in 6.2 mi NNE 5.8 mph - N/A   Scattered Clouds
10:50 AM 60.8 °F - 39.2 °F 45% 30.04 in 6.2 mi ENE 9.2 mph - N/A   Scattered Clouds
11:20 AM 60.8 °F - 35.6 °F 39% 30.04 in 6.2 mi ENE 12.7 mph 24.2 mph N/A   Scattered Clouds
11:50 AM 59.0 °F - 35.6 °F 42% 30.04 in 6.2 mi East 6.9 mph 20.7 mph N/A   Scattered Clouds
12:20 PM 60.8 °F - 35.6 °F 39% 30.04 in 6.2 mi ENE 10.4 mph 21.9 mph N/A   Scattered Clouds
12:50 PM 60.8 °F - 35.6 °F 39% 30.04 in 6.2 mi NE 10.4 mph - N/A   Scattered Clouds
1:20 PM 60.8 °F - 35.6 °F 39% 30.04 in 6.2 mi NE 13.8 mph - N/A   Scattered Clouds
1:50 PM 60.8 °F - 35.6 °F 39% 30.01 in 6.2 mi ENE 10.4 mph - N/A   Scattered Clouds
2:20 PM 60.8 °F - 35.6 °F 39% 30.01 in 6.2 mi ENE 10.4 mph - N/A   Scattered Clouds
2:50 PM 60.8 °F - 35.6 °F 39% 30.01 in 6.2 mi ENE 10.4 mph - N/A   Scattered Clouds
3:20 PM 62.6 °F - 35.6 °F 37% 29.98 in 6.2 mi NE 6.9 mph - N/A   Mostly Cloudy
3:50 PM 60.8 °F - 37.4 °F 42% 29.98 in 6.2 mi NE 6.9 mph - N/A   Mostly Cloudy
4:20 PM 59.0 °F - 37.4 °F 45% 29.98 in 6.2 mi ENE 4.6 mph - N/A   Mostly Cloudy
4:50 PM 59.0 °F - 37.4 °F 45% 29.98 in 6.2 mi NE 4.6 mph - N/A   Mostly Cloudy
5:20 PM 57.2 °F - 37.4 °F 48% 29.98 in 6.2 mi NE 4.6 mph - N/A   Mostly Cloudy
5:50 PM 57.2 °F - 37.4 °F 48% 29.98 in 6.2 mi NNE 4.6 mph - N/A   Mostly Cloudy
6:20 PM 55.4 °F - 39.2 °F 54% 30.01 in 6.2 mi Calm Calm - N/A   Mostly Cloudy
6:50 PM 55.4 °F - 39.2 °F 54% 30.01 in 6.2 mi Calm Calm - N/A   Mostly Cloudy
7:20 PM 53.6 °F - 39.2 °F 58% 30.01 in 6.2 mi Calm Calm - N/A   Mostly Cloudy
7:50 PM 53.6 °F - 37.4 °F 54% 30.01 in 6.2 mi Calm Calm - N/A   Mostly Cloudy
8:20 PM 51.8 °F - 37.4 °F 58% 30.01 in 6.2 mi NNW 5.8 mph - N/A   Mostly Cloudy
8:50 PM 51.8 °F - 37.4 °F 58% 30.01 in 6.2 mi NNW 6.9 mph - N/A   Mostly Cloudy
9:20 PM 50.0 °F - 35.6 °F 58% 30.01 in - NNW 5.8 mph - N/A   Unknown
9:50 PM 50.0 °F - 35.6 °F 58% 30.01 in - NW 5.8 mph - N/A   Unknown
10:20 PM 50.0 °F - 33.8 °F 54% 30.01 in - NNW 5.8 mph - N/A   Unknown
10:50 PM 48.2 °F - 35.6 °F 62% 30.01 in 6.2 mi North 5.8 mph - N/A   Scattered Clouds
11:20 PM 48.2 °F - 33.8 °F 58% 30.01 in - North 6.9 mph - N/A   Unknown
11:50 PM 44.6 °F 41.4 °F 33.8 °F 66% 30.01 in - NNW 5.8 mph - N/A   Unknown